| time (UTC) | temp C | wind direction | speed KPH | gust KPH | rain 1hr cm | rain 24hr cm | rain mn cm | humidity % | barometer mb |
| 20260901204556 | 15 | 253 | 3.2 | 9.7 | 0.00 | 0.48 | 0.48 | 86 | 1014.0 |
| 20260901203055 | 15 | 241 | 4.8 | 8.0 | 0.00 | 0.48 | 0.48 | 85 | 1014.1 |
| 20260901201554 | 15 | 264 | 3.2 | 9.7 | 0.03 | 0.48 | 0.48 | 85 | 1013.9 |
| 20260901200053 | 15 | 229 | 3.2 | 8.0 | 0.15 | 0.48 | 0.48 | 86 | 1013.7 |
| 20260901194559 | 15 | 265 | 4.8 | 12.9 | 0.25 | 0.48 | 0.48 | 87 | 1013.7 |
| 20260901193050 | 15 | 230 | 1.6 | 4.8 | 0.25 | 0.48 | 0.48 | 87 | 1013.5 |
| 20260901191600 | 16 | 276 | 0.0 | 4.8 | 0.23 | 0.46 | 0.46 | 86 | 1013.5 |
| 20260901190112 | 16 | 284 | 8.0 | 20.9 | 0.13 | 0.33 | 0.33 | 85 | 1013.4 |
| 20260901184548 | 17 | 294 | 4.8 | 12.9 | 0.00 | 0.23 | 0.23 | 84 | 1013.2 |
| 20260901183045 | 17 | 231 | 4.8 | 11.3 | 0.00 | 0.23 | 0.23 | 84 | 1013.0 |
| 20260901181544 | 17 | 241 | 1.6 | 8.0 | 0.00 | 0.23 | 0.23 | 84 | 1013.0 |
| 20260901180042 | 17 | 261 | 3.2 | 11.3 | 0.00 | 0.23 | 0.23 | 83 | 1012.9 |
| 20260901174549 | 17 | 274 | 6.4 | 16.1 | 0.00 | 0.23 | 0.23 | 83 | 1012.6 |
| 20260901173040 | 17 | 269 | 11.3 | 19.3 | 0.00 | 0.23 | 0.23 | 82 | 1012.6 |
| 20260901171545 | 17 | 280 | 9.7 | 17.7 | 0.00 | 0.23 | 0.23 | 82 | 1012.7 |
| 20260901170038 | 17 | 280 | 14.5 | 22.5 | 0.00 | 0.23 | 0.23 | 80 | 1012.5 |
| 20260901164540 | 18 | 351 | 9.7 | 16.1 | 0.00 | 0.23 | 0.23 | 80 | 1012.5 |
| 20260901163100 | 18 | 280 | 8.0 | 20.9 | 0.00 | 0.23 | 0.23 | 81 | 1012.4 |
| 20260901161536 | 18 | 316 | 9.7 | 20.9 | 0.00 | 0.23 | 0.23 | 82 | 1012.4 |
| 20260901160034 | 18 | 279 | 16.1 | 25.7 | 0.00 | 0.23 | 0.23 | 80 | 1012.4 |
| 20260901154547 | 18 | 310 | 12.9 | 24.1 | 0.00 | 0.25 | 0.23 | 78 | 1012.2 |
| 20260901153038 | 18 | 293 | 14.5 | 24.1 | 0.00 | 0.25 | 0.23 | 77 | 1012.2 |
| 20260901151534 | 18 | 276 | 14.5 | 22.5 | 0.00 | 0.25 | 0.23 | 76 | 1012.2 |
| 20260901150030 | 18 | 285 | 16.1 | 22.5 | 0.00 | 0.25 | 0.23 | 77 | 1012.1 |
| 20260901144529 | 18 | 284 | 9.7 | 20.9 | 0.00 | 0.25 | 0.23 | 77 | 1012.0 |
| 20260901143027 | 18 | 295 | 11.3 | 19.3 | 0.00 | 0.25 | 0.23 | 77 | 1012.0 |
| 20260901141526 | 18 | 291 | 17.7 | 22.5 | 0.00 | 0.25 | 0.23 | 79 | 1012.0 |
| 20260901140025 | 17 | 291 | 9.7 | 20.9 | 0.00 | 0.25 | 0.23 | 81 | 1011.9 |
| 20260901134525 | 18 | 300 | 9.7 | 17.7 | 0.00 | 0.99 | 0.23 | 78 | 1011.9 |
| 20260901133023 | 17 | 328 | 12.9 | 20.9 | 0.00 | 0.99 | 0.23 | 85 | 1011.9 |
| 20260901131522 | 17 | 311 | 11.3 | 19.3 | 0.00 | 0.99 | 0.23 | 85 | 1012.0 |
| 20260901130021 | 16 | 312 | 16.1 | 20.9 | 0.00 | 0.99 | 0.23 | 85 | 1011.9 |
| 20260901124521 | 16 | 307 | 16.1 | 24.1 | 0.00 | 1.37 | 0.23 | 86 | 1011.9 |
| 20260901123021 | 16 | 313 | 19.3 | 25.7 | 0.00 | 1.37 | 0.23 | 85 | 1011.9 |
| 20260901121531 | 17 | 309 | 17.7 | 22.5 | 0.00 | 1.37 | 0.23 | 85 | 1011.9 |
| 20260901120018 | 17 | 298 | 12.9 | 17.7 | 0.00 | 1.37 | 0.23 | 83 | 1012.0 |
| 20260901114522 | 17 | 259 | 9.7 | 24.1 | 0.00 | 1.55 | 0.23 | 82 | 1012.0 |
| 20260901113014 | 17 | 277 | 12.9 | 24.1 | 0.00 | 1.55 | 0.23 | 83 | 1012.0 |
| 20260901111513 | 16 | 280 | 19.3 | 25.7 | 0.00 | 1.55 | 0.23 | 85 | 1011.9 |
| 20260901110012 | 16 | 300 | 17.7 | 24.1 | 0.00 | 1.55 | 0.23 | 87 | 1011.9 |
| 20260901104515 | 16 | 300 | 19.3 | 25.7 | 0.00 | 1.73 | 0.23 | 88 | 1011.7 |
| 20260901103015 | 16 | 288 | 17.7 | 27.4 | 0.00 | 1.73 | 0.23 | 86 | 1011.5 |
| 20260901101510 | 16 | 296 | 16.1 | 22.5 | 0.00 | 1.73 | 0.23 | 86 | 1011.4 |
| 20260901100004 | 16 | 296 | 16.1 | 20.9 | 0.00 | 1.73 | 0.23 | 86 | 1011.3 |
| 20260901094505 | 16 | 300 | 14.5 | 19.3 | 0.00 | 1.73 | 0.23 | 87 | 1011.1 |
| 20260901093102 | 16 | 272 | 8.0 | 17.7 | 0.00 | 1.73 | 0.23 | 89 | 1011.1 |
| 20260901091605 | 16 | 285 | 14.5 | 20.9 | 0.00 | 1.73 | 0.23 | 88 | 1011.0 |
| 20260901090101 | 16 | 295 | 14.5 | 22.5 | 0.00 | 1.73 | 0.23 | 88 | 1010.8 |
| 20260901084555 | 16 | 288 | 14.5 | 20.9 | 0.00 | 1.78 | 0.23 | 88 | 1010.6 |
| 20260901083053 | 16 | 288 | 16.1 | 22.5 | 0.00 | 1.78 | 0.23 | 88 | 1010.6 |
| 20260901081553 | 16 | 304 | 19.3 | 22.5 | 0.00 | 1.78 | 0.23 | 89 | 1010.4 |
| 20260901080106 | 16 | 289 | 14.5 | 20.9 | 0.00 | 1.78 | 0.23 | 90 | 1010.1 |
| 20260901074547 | 16 | 294 | 14.5 | 20.9 | 0.00 | 1.78 | 0.23 | 90 | 1010.0 |
| 20260901073045 | 16 | 293 | 14.5 | 20.9 | 0.00 | 1.78 | 0.23 | 90 | 1009.9 |
| 20260901071542 | 16 | 300 | 17.7 | 22.5 | 0.00 | 1.78 | 0.23 | 91 | 1009.7 |
| 20260901070049 | 16 | 276 | 12.9 | 17.7 | 0.00 | 1.78 | 0.23 | 92 | 1009.5 |
| 20260901064536 | 15 | 290 | 11.3 | 17.7 | 0.00 | 1.78 | 0.23 | 93 | 1009.4 |
| 20260901063036 | 15 | 293 | 4.8 | 12.9 | 0.00 | 1.78 | 0.23 | 93 | 1009.4 |
| 20260901061533 | 15 | 256 | 1.6 | 8.0 | 0.00 | 1.78 | 0.23 | 93 | 1009.2 |
| 20260901060036 | 15 | 262 | 3.2 | 9.7 | 0.00 | 1.78 | 0.23 | 93 | 1009.1 |
| 20260901054528 | 15 | 287 | 1.6 | 9.7 | 0.00 | 1.78 | 0.23 | 93 | 1009.2 |
| 20260901053027 | 15 | 247 | 3.2 | 8.0 | 0.00 | 1.78 | 0.23 | 94 | 1009.1 |
| 20260901051526 | 15 | 239 | 1.6 | 6.4 | 0.00 | 1.78 | 0.23 | 94 | 1009.0 |
| 20260901050024 | 14 | 224 | 1.6 | 8.0 | 0.00 | 1.78 | 0.23 | 94 | 1009.0 |
| 20260901044525 | 14 | 218 | 4.8 | 8.0 | 0.00 | 1.78 | 0.23 | 93 | 1008.7 |
| 20260901043022 | 14 | 212 | 3.2 | 9.7 | 0.00 | 1.78 | 0.23 | 93 | 1008.6 |
| 20260901041521 | 14 | 216 | 1.6 | 6.4 | 0.00 | 1.78 | 0.23 | 93 | 1008.5 |
| 20260901040020 | 14 | 223 | 3.2 | 6.4 | 0.05 | 1.78 | 0.23 | 93 | 1008.4 |
| 20260901034522 | 14 | 221 | 1.6 | 6.4 | 0.15 | 1.78 | 0.23 | 93 | 1008.4 |
| 20260901033030 | 14 | 210 | 3.2 | 8.0 | 0.23 | 1.78 | 0.23 | 93 | 1008.3 |
| 20260901031522 | 14 | 217 | 3.2 | 8.0 | 0.23 | 1.78 | 0.23 | 93 | 1008.4 |
| 20260901030015 | 14 | 216 | 3.2 | 8.0 | 0.18 | 1.75 | 0.18 | 93 | 1008.3 |
| 20260901024515 | 14 | 247 | 3.2 | 9.7 | 0.05 | 1.60 | 0.05 | 92 | 1008.2 |
| 20260901023014 | 14 | 226 | 4.8 | 12.9 | 0.00 | 1.55 | 0.00 | 92 | 1008.3 |
| 20260901021523 | 14 | 198 | 6.4 | 11.3 | 0.00 | 1.55 | 0.00 | 93 | 1008.1 |
| 20260901020014 | 14 | 211 | 4.8 | 11.3 | 0.00 | 1.55 | 0.00 | 92 | 1008.1 |
| 20260901014511 | 14 | 208 | 3.2 | 8.0 | 0.00 | 1.55 | 0.00 | 92 | 1008.0 |
| 20260901013010 | 14 | 198 | 3.2 | 9.7 | 0.00 | 1.55 | 0.00 | 92 | 1007.9 |
| 20260901011512 | 14 | 220 | 4.8 | 9.7 | 0.00 | 1.55 | 0.00 | 92 | 1007.9 |
| 20260901010022 | 15 | 207 | 4.8 | 11.3 | 0.00 | 1.55 | 0.00 | 92 | 1007.9 |
| 20260901004505 | 15 | 214 | 4.8 | 9.7 | 0.00 | 1.55 | 0.00 | 92 | 1007.9 |
| 20260901003004 | 15 | 207 | 4.8 | 12.9 | 0.00 | 1.55 | 0.00 | 91 | 1007.8 |
| 20260901001503 | 15 | 184 | 4.8 | 9.7 | 0.00 | 1.55 | 0.00 | 91 | 1007.8 |
| 20260901000001 | 15 | 207 | 3.2 | 8.0 | 0.00 | 1.55 | 0.00 | 91 | 1007.7 |
| 20260831234501 | 15 | 204 | 3.2 | 8.0 | 0.00 | 1.55 | 0.00 | 91 | 1007.6 |
| 20260831233100 | 15 | 184 | 4.8 | 8.0 | 0.00 | 1.55 | 0.00 | 91 | 1007.7 |
| 20260831231610 | 15 | 233 | 4.8 | 9.7 | 0.00 | 1.55 | 0.00 | 91 | 1007.8 |
| 20260831230052 | 15 | 229 | 4.8 | 9.7 | 0.00 | 1.55 | 0.00 | 91 | 1007.7 |
| 20260831224547 | 15 | 230 | 1.6 | 12.9 | 0.00 | 1.55 | 0.00 | 91 | 1007.6 |
| 20260831223045 | 15 | 217 | 4.8 | 11.3 | 0.00 | 1.55 | 0.00 | 91 | 1007.7 |
| 20260831221544 | 15 | 245 | 3.2 | 11.3 | 0.00 | 1.55 | 0.00 | 91 | 1007.8 |
| 20260831220036 | 15 | 205 | 4.8 | 11.3 | 0.00 | 1.55 | 0.00 | 91 | 1007.8 |
| 20260831214535 | 15 | 225 | 4.8 | 11.3 | 0.00 | 1.55 | 1.55 | 91 | 1007.7 |
| 20260831213042 | 15 | 212 | 4.8 | 11.3 | 0.00 | 1.55 | 1.55 | 91 | 1007.6 |
| 20260831211535 | 15 | 190 | 4.8 | 11.3 | 0.00 | 1.55 | 1.55 | 91 | 1007.4 |
| 20260831210033 | 15 | 216 | 4.8 | 9.7 | 0.00 | 1.55 | 1.55 | 91 | 1007.4 |